Bewolking Meer informatie Parkstad Weather Satellite


Neerslagradar Meer informatie Parkstad Rain Snow Radar


Onweersbuien Meer informatie Parkstad Lighntning


24/7 Weercamera Meer informatie Parkstad Weathercam


Natuurbrandrisico
CBI







Het weer levert geen direct gevaar op in Parkstad.    Er zijn geen waarschuwingen afgegeven voor Parkstad (045)

METAR rapporten vliegvelden

   
EHAM - Amsterdam
Gewijzigd: 29-10-2020 19:55
Wat regen mogelijk, Grotendeels bewolkt  
Wat regen mogelijk, Grotendeels bewolkt  
   Wind: ZZW 25.9 km/h
Wind: ZZW 25.9 km/h
Temperatuur: 12°C
Dauwpunt: 11°C
Vochtigheid: 94%
Barometer: 1012 hPa
Satelliet beelden: Grotendeels bewolkt
Zicht: 8 km
Bewolking: Licht bewolkt 213 m,
Gedeeltelijk bewolkt 488 m,
Grotendeels bewolkt 1433 m
EHAM 291855Z 20014KT 8000 -RA FEW007 SCT016 BKN047 12/11 Q1012 TEMPO 6000 BKN007
EBAW - Antwerpen
Gewijzigd: 29-10-2020 19:50
Grotendeels bewolkt  
Grotendeels bewolkt  
   Wind: ZW 20.4 km/h
Wind: ZW 20.4 km/h
Temperatuur: 12°C
Dauwpunt: 10°C
Vochtigheid: 88%
Barometer: 1016 hPa
Satelliet beelden: Grotendeels bewolkt
Zicht: meer dan 10 km
Bewolking: Licht bewolkt 183 m,
Grotendeels bewolkt 305 m,
Grotendeels bewolkt 610 m
EBAW 291850Z 22011KT 190V250 9999 FEW006 BKN010 BKN020 12/10 Q1016 NOSIG
EGLL - London
Gewijzigd: 29-10-2020 20:20
Grotendeels bewolkt  
Grotendeels bewolkt  
   Wind: ZW 27.8 km/h
Wind: ZW 27.8 km/h
Temperatuur: 15°C
Dauwpunt: 12°C
Vochtigheid: 82%
Barometer: 1012 hPa
Satelliet beelden: Grotendeels bewolkt
Zicht: meer dan 10 km
Bewolking: Grotendeels bewolkt 518 m
EGLL 291920Z AUTO 23015KT 9999 BKN017 15/12 Q1012
ELLX - Luxemburg
Gewijzigd: 29-10-2020 19:50
Lichte (mot)regen, Grotendeels bewolkt  
Lichte (mot)regen, Grotendeels bewolkt  
   Wind: ZZW 16.7 km/h
Wind: ZZW 16.7 km/h
Temperatuur: 10°C
Voelt als: 8°C
Dauwpunt: 9°C
Vochtigheid: 94%
Barometer: 1020 hPa
Satelliet beelden: Grotendeels bewolkt
Zicht: meer dan 10 km
Bewolking: Licht bewolkt 122 m,
Grotendeels bewolkt 274 m
ELLX 291850Z 21009KT 9999 -DZ FEW004 BKN009 10/09 Q1020 NOSIG
EDDT - Berlijn
Gewijzigd: 29-10-2020 20:20
Grotendeels bewolkt  
Grotendeels bewolkt  
   Wind: WZW 16.7 km/h
Wind: WZW 16.7 km/h
Temperatuur: 10°C
Voelt als: 8°C
Dauwpunt: 6°C
Vochtigheid: 76%
Barometer: 1016 hPa
Satelliet beelden: Grotendeels bewolkt
Zicht: meer dan 10 km
Bewolking: Grotendeels bewolkt 1372 m
EDDT 291920Z 25009KT 9999 BKN045 10/06 Q1016 NOSIG
EDDM - München
Gewijzigd: 29-10-2020 20:20
Wat regen mogelijk, Gedeeltelijk bewolkt  
Wat regen mogelijk, Gedeeltelijk bewolkt  
   Wind: WZW 14.8 km/h
Wind: WZW 14.8 km/h
Temperatuur: 9°C
Voelt als: 7°C
Dauwpunt: 8°C
Vochtigheid: 94%
Barometer: 1023 hPa
Satelliet beelden: Gedeeltelijk bewolkt
Zicht: meer dan 10 km
Bewolking: Gedeeltelijk bewolkt 1372 m
EDDM 291920Z 24008KT 9999 -RA SCT045 09/08 Q1023 NOSIG
LFPO - Parijs
Gewijzigd: 29-10-2020 20:00
Grotendeels bewolkt  
Grotendeels bewolkt  
   Wind: ZW 14.8 km/h
Wind: ZW 14.8 km/h
Temperatuur: 15°C
Dauwpunt: 12°C
Vochtigheid: 82%
Barometer: 1021 hPa
Satelliet beelden: Grotendeels bewolkt
Zicht: meer dan 10 km
Bewolking: Grotendeels bewolkt 1219 m
LFPO 291900Z 22008KT 9999 BKN040 15/12 Q1021 NOSIG
EDDL - Düsseldorf
Gewijzigd: 29-10-2020 20:20
Wat regen mogelijk, Grotendeels bewolkt  
Wat regen mogelijk, Grotendeels bewolkt  
   Wind: Zuiden 22.2 km/h
Wind: Zuiden 22.2 km/h
Temperatuur: 11°C
Dauwpunt: 10°C
Vochtigheid: 94%
Barometer: 1017 hPa
Satelliet beelden: Grotendeels bewolkt
Zicht: meer dan 10 km
Bewolking: Licht bewolkt 366 m,
Grotendeels bewolkt 518 m
EDDL 291920Z 17012KT 9999 -RA FEW012 BKN017 11/10 Q1017 RERA TEMPO BKN012
EDDK - Köln/Bonn Duitsland
Gewijzigd: 29-10-2020 20:20
Wat regen mogelijk, Grotendeels bewolkt  
Wat regen mogelijk, Grotendeels bewolkt  
   Wind: ZZO 13 km/h
Wind: ZZO 13 km/h
Temperatuur: 10°C
Voelt als: 8°C
Dauwpunt: 9°C
Vochtigheid: 94%
Barometer: 1018 hPa
Satelliet beelden: Grotendeels bewolkt
Zicht: meer dan 10 km
Bewolking: Grotendeels bewolkt 1006 m
EDDK 291920Z 16007KT 9999 -RA BKN033 10/09 Q1018 TEMPO RA
TNCA - Oranjestad Aruba
Gewijzigd: 29-10-2020 20:00
Gedeeltelijk bewolkt  
Gedeeltelijk bewolkt  
   Wind: Oosten 16.7 km/h
Wind: Oosten 16.7 km/h
Temperatuur: 30°C
Gevoelstemperatuur: 35°C
Dauwpunt: 24°C
Vochtigheid: 70%
Barometer: 1007 hPa
Satelliet beelden: Gedeeltelijk bewolkt
Zicht: meer dan 10 km
Bewolking: Gedeeltelijk bewolkt 823 m
TNCA 291900Z 09009KT 060V120 9999 SCT027 30/24 Q1007 NOSIG
TNCC - Willemstad Curacao
Gewijzigd: 29-10-2020 20:00
Grotendeels bewolkt  
Grotendeels bewolkt  
   Wind: ONO 18.5 km/h
Wind: ONO 18.5 km/h
Temperatuur: 27°C
Gevoelstemperatuur: 29°C
Dauwpunt: 23°C
Vochtigheid: 79%
Barometer: 1008 hPa
Satelliet beelden: Grotendeels bewolkt
Zicht: meer dan 10 km
Bewolking: Licht bewolkt 396 m,
Grotendeels bewolkt 579 m
TNCC 291900Z 06010KT 040V100 9999 FEW013CB BKN019TCU 27/23 Q1008 TEMPO 0500 +TSRA SCT013CB BKN019TCU=
LEAL - La Nucia Spanje
Gewijzigd: 29-10-2020 20:00
Helder  
Helder  
   Wind: NW 1.9 km/h
Wind: NW 1.9 km/h
Temperatuur: 16°C
Dauwpunt: 14°C
Vochtigheid: 88%
Barometer: 1026 hPa
Zicht: meer dan 10 km
Bewolking: Helder
LEAL 291900Z 31001KT CAVOK 16/14 Q1026 NOSIG

Script ontwikkeld door  Saratoga-weather.org Aangepast voor de template door  Weerstation Leuven

U vindt ons ook hier:

Het Weer Aktueel

WOW Nederland KNMI

Vereniging voor Weerkunde en Klimatologie

UK Met Office Weather Observation Website (WOW)

WeatherCloud

Weather Underground

Awekas

MeteoMap.Cloud

HAMweather, WeatherForYou, PWS Weather

Citizen Weather Observer Program (CWOP)

Apparatuur in gebruik:

Hardwareleverancier
Weerhuisje

Weerstation
Vantage Pro2+ UV

Weercomputer's
alix3d2 & wl330n

Weerprogramma's
Smartbedded

Satelliet NOAA's
WRX137 & KX137

Satelliet Eumetsat
Ayecka SR1 & Triax

Bliksemdetectie
Boltek StormTracker

Webleverancier
F-Service

Weerhuisje

Vantage Pro2+ UV

alix3d2 & wl330n

Smartbedded

WRX137 & KX137

Ayecka SR1 & Triax

Boltek StormTracker

F-Service